Weather reports worldwide

Advertisment
Strathallan, United Kingdom (3144): temperature & dewpoint: 02.08.2020 03:00:00 - 08.08.2020 03:00:00 (BST)Strathallan, United Kingdom (3144): temperature -20cm & temperature -100cm: 02.08.2020 03:00:00 - 08.08.2020 03:00:00 (BST)Strathallan, United Kingdom (3144): wind speed & gusts: 02.08.2020 03:00:00 - 08.08.2020 03:00:00 (BST)Strathallan, United Kingdom (3144): wind direction: 02.08.2020 03:00:00 - 08.08.2020 03:00:00 (BST)Strathallan, United Kingdom (3144): reduced air pressure: 02.08.2020 03:00:00 - 08.08.2020 03:00:00 (BST)Strathallan, United Kingdom (3144): visibility: 02.08.2020 03:00:00 - 08.08.2020 03:00:00 (BST)Strathallan, United Kingdom (3144): precipitation: 02.08.2020 03:00:00 - 08.08.2020 03:00:00 (BST)
Date & Time tt [°C] td [°C] tt -20cm [°C] tt -100cm [°C] ff [km/h] ff [kn] fx [km/h] fx [kn] dd ppp [hPa] vv [km] rr [mm]
08.08.2020 03:00:00 10,0 8,8 - - 5 3 - - WSW 1021,4 40 0,0
08.08.2020 02:00:00 10,4 9,4 - - 9 5 - - SW 1020,8 45 0,0
08.08.2020 01:00:00 11,3 10,2 - - 5 3 - - S 1020,2 45 0,0
08.08.2020 00:00:00 11,4 10,3 - - 8 4 - - SW 1019,6 50 0,0
07.08.2020 23:00:00 13,5 12,4 - - 8 4 - - WSW 1018,6 50 0,0
07.08.2020 22:00:00 15,4 14,3 - - 15 8 - - WSW 1017,7 50 0,0
07.08.2020 21:00:00 16,3 14,9 - - 18 10 - - SW 1016,7 50 0,0
07.08.2020 20:00:00 17,2 15,6 - - 16 9 - - SW 1015,9 40 0,0
07.08.2020 19:00:00 18,2 17,2 - - 13 7 - - WSW 1015,4 40 1,2
07.08.2020 18:00:00 21,2 15,6 - - 11 6 - - SW 1014,5 50 0,0
07.08.2020 17:00:00 21,6 15,7 - - 15 8 - - SW 1014,7 50 0,0
07.08.2020 16:00:00 20,2 15,5 - - 13 7 - - SW 1015,1 45 0,0
07.08.2020 15:00:00 22,0 16,0 - - 16 9 - - SW 1015,4 27 0,0
07.08.2020 14:00:00 20,6 16,3 - - 11 6 - - SSW 1015,3 45 0,0
07.08.2020 13:00:00 19,1 15,8 - - 9 5 - - S 1015,6 20 0,2
07.08.2020 12:00:00 21,0 14,1 - - 9 5 - - S 1015,3 40 0,0
07.08.2020 11:00:00 19,7 13,9 - - 11 6 - - SSW 1015,8 50 0,0
07.08.2020 10:00:00 19,7 13,6 16,7 14,7 11 6 - - S 1015,7 45 0,0
07.08.2020 09:00:00 18,5 14,1 - - 11 6 - - SSW 1015,7 45 0,0
07.08.2020 08:00:00 17,3 14,9 - - 5 3 - - SSW 1015,5 45 0,0
07.08.2020 07:00:00 15,5 14,7 - - 2 1 - - WNW 1015,4 50 0,0
07.08.2020 06:00:00 14,7 14,2 - - 2 1 - - W 1015,2 50 0,0
07.08.2020 05:00:00 13,9 13,4 - - 2 1 - - SSW 1015,3 30 0,0
07.08.2020 04:00:00 13,5 12,9 - - 2 1 - - W 1015,1 40 0,0
07.08.2020 03:00:00 14,3 13,4 - - 2 1 - - NNE 1015,2 50 0,0
07.08.2020 02:00:00 14,7 13,2 - - 4 2 - - SW 1015,0 50 0,0
07.08.2020 01:00:00 15,3 13,7 - - 5 3 - - WSW 1015,2 50 0,0
07.08.2020 00:00:00 16,6 14,3 - - 8 4 - - SW 1014,9 45 0,0
06.08.2020 23:00:00 17,3 14,4 - - 9 5 - - WSW 1014,8 50 0,0
06.08.2020 22:00:00 18,5 14,0 - - 11 6 - - SSW 1014,4 50 0,0
06.08.2020 21:00:00 19,1 14,0 - - 13 7 - - S 1014,1 35 0,0
06.08.2020 20:00:00 20,0 14,4 - - 8 4 - - S 1013,7 45 0,0
06.08.2020 19:00:00 20,4 14,3 - - 5 3 - - SSE 1013,6 29 0,0
06.08.2020 18:00:00 20,9 14,2 - - 13 7 - - S 1013,8 14 0,0
06.08.2020 17:00:00 21,3 14,4 - - 4 2 - - S 1014,0 30 0,0
06.08.2020 16:00:00 21,0 14,3 - - 8 4 - - S 1014,4 28 0,0
06.08.2020 15:00:00 21,0 13,6 - - 5 3 - - SSW 1014,4 45 0,0
06.08.2020 14:00:00 20,7 13,0 - - 9 5 - - WSW 1014,6 30 0,0
06.08.2020 13:00:00 20,1 12,8 - - 11 6 - - SW 1014,9 50 0,0
06.08.2020 12:00:00 19,0 13,1 - - 15 8 - - WSW 1014,9 35 0,0
06.08.2020 11:00:00 18,3 12,0 - - 13 7 - - SW 1014,7 45 0,0
06.08.2020 10:00:00 17,4 12,6 15,7 14,7 9 5 - - SW 1014,5 50 0,0
06.08.2020 09:00:00 16,3 12,8 - - 9 5 - - WSW 1014,5 40 0,0
06.08.2020 08:00:00 14,3 12,7 - - 8 4 - - WSW 1014,1 50 0,0
06.08.2020 07:00:00 12,1 11,6 - - 2 1 - - NW 1013,6 50 0,0
06.08.2020 06:00:00 10,8 10,3 - - 8 4 - - SW 1012,6 40 0,0
06.08.2020 05:00:00 11,4 10,8 - - 5 3 - - W 1012,4 29 0,0
06.08.2020 04:00:00 12,0 11,4 - - 9 5 - - WSW 1011,8 30 0,0
06.08.2020 03:00:00 12,0 11,2 - - 9 5 - - WSW 1011,0 30 0,0
06.08.2020 02:00:00 13,5 12,6 - - 11 6 - - WSW 1010,2 40 0,0
06.08.2020 01:00:00 14,8 13,8 - - 8 4 - - SSW 1009,5 45 0,0
06.08.2020 00:00:00 14,9 14,2 - - 5 3 - - SW 1008,8 30 0,0
05.08.2020 23:00:00 15,6 14,9 - - 8 4 - - SW 1008,0 50 0,0
05.08.2020 22:00:00 15,5 14,8 - - 13 7 - - SW 1007,1 50 0,0
05.08.2020 21:00:00 16,1 15,3 - - 5 3 - - SSW 1006,0 19 0,2
05.08.2020 20:00:00 16,7 15,8 - - 2 1 - - SW 1005,4 4,5 0,0
05.08.2020 19:00:00 16,5 15,8 - - 4 2 - - WNW 1004,5 4,0 0,2
05.08.2020 18:00:00 17,2 15,2 - - 5 3 - - W 1004,1 21 0,0
05.08.2020 17:00:00 17,0 14,8 - - 5 3 - - SW 1003,8 40 0,2
05.08.2020 16:00:00 17,9 14,7 - - 8 4 - - SSW 1003,6 50 0,0
05.08.2020 15:00:00 17,2 14,7 - - 11 6 - - SW 1003,4 25 0,0
05.08.2020 14:00:00 17,6 13,1 - - 11 6 - - SSW 1003,4 50 0,0
05.08.2020 13:00:00 18,1 14,5 - - 9 5 - - SW 1002,4 45 0,0
05.08.2020 12:00:00 17,1 14,0 - - 13 7 - - WSW 1002,0 50 0,0
05.08.2020 11:00:00 16,4 13,9 - - 13 7 - - SW 1001,9 50 0,0
05.08.2020 10:00:00 15,4 13,0 15,5 14,7 15 8 - - SW 1001,8 50 0,0
05.08.2020 09:00:00 15,2 12,9 - - 18 10 - - SW 1001,1 50 0,0
05.08.2020 08:00:00 14,9 13,0 - - 15 8 - - SW 1000,9 40 0,0
05.08.2020 07:00:00 14,4 13,0 - - 15 8 - - SW 1000,6 40 0,0
05.08.2020 06:00:00 14,1 12,6 - - 22 12 - - SW 1000,2 50 0,0
05.08.2020 05:00:00 14,0 12,4 - - 24 13 - - WSW 999,4 45 0,0
05.08.2020 04:00:00 14,2 12,8 - - 16 9 - - SSW 999,4 11 0,0
05.08.2020 03:00:00 14,2 12,8 - - 24 13 - - SW 998,6 40 0,0
05.08.2020 02:00:00 14,5 13,0 - - 9 5 - - SSW 998,4 50 0,0
05.08.2020 01:00:00 15,3 13,7 - - 18 10 - - SW 997,6 50 0,0
05.08.2020 00:00:00 16,6 15,5 - - 29 16 50 27 SW 997,0 4,4 0,2
04.08.2020 23:00:00 17,0 15,9 - - 24 13 52 28 SW 996,4 6 0,2
04.08.2020 22:00:00 16,7 15,9 - - 21 11 - - SW 996,9 4,6 0,4
04.08.2020 21:00:00 16,6 15,9 - - 21 11 48 26 SW 996,9 5 1,4
04.08.2020 20:00:00 16,7 15,9 - - 22 12 - - SW 997,2 2,5 3,4
04.08.2020 19:00:00 16,9 16,0 - - 18 10 - - SW 997,7 7 5,8
04.08.2020 18:00:00 16,5 15,5 - - 22 12 - - SW 998,0 3,6 3,0
04.08.2020 17:00:00 16,3 15,6 - - 18 10 - - SW 998,4 2,8 5,2
04.08.2020 16:00:00 16,1 15,2 - - 15 8 - - SW 999,6 6 3,2
04.08.2020 15:00:00 15,1 14,7 - - 5 3 - - SW 1000,7 6 2,8
04.08.2020 14:00:00 14,0 13,5 - - 5 3 - - N 1001,9 10 3,4
04.08.2020 13:00:00 13,3 12,7 - - 5 3 - - NW 1003,3 7 3,2
04.08.2020 12:00:00 13,2 12,5 - - 2 1 - - W 1004,4 26 2,0
04.08.2020 11:00:00 12,2 11,6 - - 2 1 - - N 1005,9 6 1,4
04.08.2020 10:00:00 12,0 11,4 15,7 14,7 4 2 - - NE 1007,1 11 0,0
04.08.2020 09:00:00 11,8 10,9 - - 5 3 - - NE 1008,4 8 1,4
04.08.2020 08:00:00 12,0 10,3 - - 5 3 - - SSW 1009,4 15 0,4
04.08.2020 07:00:00 10,7 9,7 - - 4 2 - - ENE 1010,0 35 0,0
04.08.2020 06:00:00 10,5 9,2 - - 2 1 - - SW 1010,9 45 0,0
04.08.2020 05:00:00 10,6 8,8 - - 2 1 - - W 1011,9 50 0,0
04.08.2020 04:00:00 11,4 8,5 - - 4 2 - - SSW 1012,5 50 0,0
04.08.2020 03:00:00 11,2 8,8 - - 8 4 - - SW 1013,3 50 0,0
04.08.2020 02:00:00 10,9 8,6 - - 8 4 - - W 1013,9 50 0,0
04.08.2020 01:00:00 10,5 8,6 - - 5 3 - - WSW 1014,5 50 0,0
04.08.2020 00:00:00 9,9 7,9 - - 9 5 - - WSW 1014,6 45 0,0
03.08.2020 23:00:00 11,0 8,2 - - 5 3 - - WNW 1014,9 50 0,0
03.08.2020 22:00:00 11,9 7,9 - - 4 2 - - WSW 1014,9 50 0,0
03.08.2020 21:00:00 12,7 7,7 - - 11 6 - - WSW 1014,8 50 0,0
03.08.2020 20:00:00 14,5 9,0 - - 5 3 - - WSW 1014,5 50 0,0
03.08.2020 19:00:00 14,6 9,0 - - 16 9 - - W 1014,4 50 0,0
03.08.2020 18:00:00 16,6 7,7 - - 21 11 - - WSW 1014,3 45 0,0
03.08.2020 17:00:00 16,1 7,8 - - 18 10 - - SW 1014,0 50 0,0
03.08.2020 16:00:00 16,2 9,1 - - 16 9 - - WSW 1014,4 45 0,0
03.08.2020 15:00:00 16,6 8,5 - - 15 8 - - WSW 1014,3 50 0,0
03.08.2020 14:00:00 15,6 8,7 - - 16 9 - - W 1014,5 50 0,0
03.08.2020 13:00:00 16,1 10,1 - - 9 5 - - SSW 1014,6 30 0,0
03.08.2020 12:00:00 14,5 10,5 - - 11 6 - - SSW 1015,0 40 0,2
03.08.2020 11:00:00 12,5 9,3 - - 11 6 - - SW 1015,2 45 0,0
03.08.2020 10:00:00 14,0 9,1 15,5 14,7 15 8 - - SW 1014,8 45 0,0
03.08.2020 09:00:00 12,4 8,8 - - 15 8 - - SW 1014,8 35 0,0
03.08.2020 08:00:00 11,2 9,3 - - 11 6 - - SW 1014,6 50 0,0
03.08.2020 07:00:00 7,9 7,8 - - 8 4 - - SW 1014,8 50 0,0
03.08.2020 06:00:00 5,5 5,2 - - 4 2 - - N 1014,8 29 0,0
03.08.2020 05:00:00 5,5 5,1 - - 9 5 - - SW 1014,5 40 0,0
03.08.2020 04:00:00 4,9 4,1 - - 2 1 - - WNW 1014,5 20 0,0
03.08.2020 03:00:00 6,0 5,5 - - 9 5 - - SW 1014,5 45 0,0
03.08.2020 02:00:00 7,0 6,0 - - 5 3 - - W 1014,6 45 0,0
03.08.2020 01:00:00 7,0 6,0 - - 8 4 - - SW 1014,6 45 0,0
03.08.2020 00:00:00 7,9 6,0 - - 8 4 - - WSW 1014,5 45 0,0
02.08.2020 23:00:00 9,7 6,8 - - 9 5 - - WSW 1014,2 40 0,0
02.08.2020 22:00:00 10,9 7,1 - - 9 5 - - SW 1014,1 50 0,0
02.08.2020 21:00:00 12,0 7,8 - - 11 6 - - WSW 1013,5 50 0,0
02.08.2020 20:00:00 15,1 7,9 - - 16 9 - - WSW 1013,0 40 0,0
02.08.2020 19:00:00 15,3 7,6 - - 18 10 - - WSW 1012,8 45 0,0
02.08.2020 18:00:00 16,4 7,1 - - 22 12 - - W 1012,6 45 0,0
02.08.2020 17:00:00 17,7 7,3 - - 22 12 - - WSW 1012,4 50 0,0
02.08.2020 16:00:00 17,2 7,3 - - 24 13 - - WSW 1012,5 40 0,0
02.08.2020 15:00:00 16,2 9,1 - - 16 9 - - WNW 1012,8 50 0,0
02.08.2020 14:00:00 17,4 7,9 - - 15 8 - - W 1012,3 30 0,0
02.08.2020 13:00:00 17,2 8,4 - - 16 9 - - WSW 1012,4 40 0,0
02.08.2020 12:00:00 14,6 9,9 - - 8 4 - - SSW 1012,4 50 0,0
02.08.2020 11:00:00 13,7 10,1 - - 15 8 - - W 1012,2 40 0,0
02.08.2020 10:00:00 14,6 11,7 16,0 14,7 15 8 - - SW 1012,0 35 0,0
02.08.2020 09:00:00 13,7 12,0 - - 11 6 - - SW 1012,0 45 0,0
02.08.2020 08:00:00 12,8 11,5 - - 13 7 - - WSW 1012,0 40 0,0
02.08.2020 07:00:00 11,8 10,9 - - 8 4 - - WNW 1011,9 50 0,0
02.08.2020 06:00:00 10,9 10,2 - - 5 3 - - WSW 1011,8 50 0,0
02.08.2020 05:00:00 11,5 10,9 - - 8 4 - - WSW 1011,8 30 0,2
02.08.2020 04:00:00 11,6 11,0 - - 9 5 - - WSW 1011,8 22 0,0
02.08.2020 03:00:00 11,7 10,9 - - 9 5 - - WSW 1011,9 45 0,0

tt = temperature
td = dewpoint
tt -20cm = temperature -20cm
tt -100cm = temperature -100cm
ff = wind speed
fx = gusts
dd = wind direction
ppp = reduced air pressure
vv = visibility
rr = precipitation

Next stations